Flag for U.S.A. Weather past 2 weeks in Tulsa, Oklahoma, U.S.A.

Now
77 °F

Passing clouds.


Feels Like: 79 °F
Forecast: 75 / 93 °F
Wind: 5 mph from North

Location: Tulsa International Airport

Current Time: Aug 28, 2014 at 8:48:13 AM

Latest Report: Aug 28, 2014 at 7:53 AM


Visibility: 10 mi

Pressure: 29.95 "Hg

Humidity: 74%

Dew point: 68 °F

Location of TulsaLocation

Historic Weather in Tulsa — Graph

°F

Tulsa temperature yesterday

Maximum temperature yesterday: 97 °F (at 3:53 PM)
Minimum temperature yesterday: 75 °F (at 5:53 AM)
Average temperature yesterday: 86 °F

Past Weeks' High & Low Weather Summary

 TemperatureHumidityPressure
High101 °F (Aug 22, 2:53 PM)91% (Aug 14, 6:53 AM)30.12 "Hg (Aug 14, 6:53 AM)
Low65 °F (Aug 13, 7:53 AM)26% (Aug 23, 2:53 PM)29.75 "Hg (Aug 19, 6:53 PM)
Average85 °F58%29.90 "Hg
* Reported Aug 13 7:53 AM — Aug 28 7:53 AM, Tulsa, Weather by CustomWeather, © 2014

Note: Actual official high and low records may vary slightly from our data, if they occured in-between our weather recording intervals... More about our weather records

Advertising

Tulsa weather history for previous 24 hours

 ConditionsComfort  
Time TempWeatherWind HumidityBarometerVisibility
7:53 AM
Aug 28
77 °FPassing clouds.5 mph74%29.95 "Hg10 mi
6:53 AM76 °FPassing clouds.12 mph74%29.94 "Hg10 mi
5:53 AM75 °FClear.6 mph76%29.93 "Hg10 mi
4:53 AM78 °FClear.6 mph69%29.93 "Hg10 mi
3:53 AM79 °FClear.7 mph67%29.93 "Hg10 mi
2:53 AM81 °FClear.9 mph60%29.93 "Hg10 mi
1:53 AM82 °FClear.8 mph63%29.95 "Hg10 mi
12:53 AM83 °FClear.9 mph61%29.95 "Hg10 mi
11:53 PM
Aug 27
84 °FClear.7 mph61%29.96 "Hg10 mi
10:53 PM83 °FPassing clouds.6 mph63%29.97 "Hg10 mi
9:53 PM85 °FPassing clouds.3 mph59%29.97 "Hg10 mi
8:53 PM85 °FPartly sunny.5 mph57%29.94 "Hg10 mi
7:53 PM89 °FPartly sunny.7 mph48%29.93 "Hg10 mi
6:53 PM93 °FPartly sunny.10 mph42%29.93 "Hg10 mi
5:53 PM95 °FPartly sunny.8 mph39%29.93 "Hg10 mi
4:53 PM96 °FPartly sunny.10 mph37%29.95 "Hg10 mi
3:53 PM97 °FBroken clouds.10 mph37%29.97 "Hg10 mi
2:53 PM95 °FBroken clouds.8 mph40%30.00 "Hg10 mi
1:53 PM95 °FBroken clouds.10 mph41%30.01 "Hg10 mi
12:53 PM93 °FBroken clouds.5 mph46%30.03 "Hg10 mi
11:53 AM91 °FPartly sunny.5 mph49%30.06 "Hg10 mi
10:53 AM88 °FPartly sunny.5 mph55%30.06 "Hg8 mi
9:53 AM85 °FPartly sunny.7 mph61%30.07 "Hg10 mi
8:53 AM83 °FPartly sunny.7 mph65%30.06 "Hg10 mi
Weather by CustomWeather, © 2014

See weather overviewHow to use our weather pages